Location: Newark
(44.2003°N, 3.2583°E)
Time: 05:21:05
(UTC+00:00)

Tiros 1 despin weight - Visible Passes

Search period start: 19 October 2019 00:00
Search period end: 29 October 2019 00:00
Orbit: 594 x 643 km, 48.2° (Epoch: 17 October)

Date Brightness Start Highest point End Pass type
(mag) Time Alt. Az. Time Alt. Az. Time Alt. Az.
19 Oct ? 03:30:41 45° NE 03:30:41 45° NE 03:34:23 10° ENE visible
19 Oct ? 05:07:45 14° WNW 05:11:47 66° NNE 05:16:27 10° E visible
20 Oct ? 03:46:38 52° N 03:46:38 52° N 03:51:09 10° E visible
20 Oct ? 05:23:44 10° WNW 05:28:28 89° NNE 05:33:08 10° ESE visible
21 Oct ? 02:25:32 12° ENE 02:25:32 12° ENE 02:25:56 10° ENE visible
21 Oct ? 04:02:37 52° NNW 04:03:20 58° N 04:07:57 10° E visible
22 Oct ? 02:41:33 17° ENE 02:41:33 17° ENE 02:42:39 10° ENE visible
22 Oct ? 04:18:38 44° NW 04:20:02 74° NNE 04:24:44 10° ESE visible
23 Oct ? 02:57:38 23° ENE 02:57:38 23° ENE 02:59:27 10° E visible
23 Oct ? 04:34:43 35° WNW 04:36:39 78° SSW 04:41:20 10° ESE visible
24 Oct ? 03:13:46 30° E 03:13:46 30° E 03:16:16 10° E visible
24 Oct ? 04:50:51 26° W 04:53:10 49° SSW 04:57:40 10° SE visible
25 Oct ? 03:30:00 39° ESE 03:30:00 39° ESE 03:32:58 10° ESE visible
25 Oct ? 05:07:04 18° W 05:09:32 29° SW 05:13:33 10° SSE visible
26 Oct ? 03:46:18 41° SE 03:46:18 41° SE 03:49:28 10° SE visible
26 Oct ? 05:23:23 12° WSW 05:25:46 16° SW 05:28:38 10° S visible
27 Oct ? 04:02:42 31° S 04:02:42 31° S 04:05:38 10° SSE visible
28 Oct ? 04:19:13 19° SSW 04:19:13 19° SSW 04:21:16 10° S visible
